Regional Weather Roundup
Issued by NWS Pendleton, OR

Home | Current Version | Previous Version | Text Only | Print | Product List | Glossary On
Versions: 1 2 3 4 5 6 7 8 9 10 11 12 13 14 15 16 17 18 19 20 21 22 23 24 25 26 27 28 29 30 31 32 33 34 35 36 37 38 39 40 41 42 43 44 45 46 47 48 49 50
000
ASUS46 KPDT 052225
RWRPDT
PENDLETON REGIONAL WEATHER ROUNDUP
NATIONAL WEATHER SERVICE PENDLETON OREGON
300 PM PDT THU MAY 5 2016

NOTE: FAIR INDICATES FEW OR NO CLOUDS BELOW 12,000 FEET WITH NO
SIGNIFICANT WEATHER AND/OR OBSTRUCTIONS TO VISIBILITY.

# INDICATES UNOFFICIAL STATION AND DATA

WAZ520-052310-
EAST SLOPES OF WASHINGTON CASCADES

CITY            SKY/WX      TMP DP  RH  WIND    PRES   REMARKS
#CLE ELUM HS    N/A         64  47  54  W2      29.91S
#CLE ELUM 2NW   N/A         64  46  52  W1      N/A
#CLE ELUM LAKE  N/A         64  50  60  CALM    29.90S
#GLENWOOD       N/A         68  55  63  CALM    29.85F
#NELSON 3SW     N/A         60  49  67  CALM    30.10F
#NILE           N/A         64  50  60  NE1     29.16S
#RONALD 2NW     N/A         64  N/A N/A SW1     29.84S
#TEANAWAY 4NE   N/A         65  56  73  W3      N/A
#TROUT LAKE 1NE N/A         66  53  63  CALM    29.87S
#TROUT LAKE 1E  N/A         68  53  59  CALM    29.88F
$$

WAZ521-052310-
SIMCOE HIGHLANDS

CITY            SKY/WX      TMP DP  RH  WIND    PRES   REMARKS
#BICKLETON HS   N/A         62  39  43  E7      N/A
#CENTERVILLE 1SWN/A         66  51  58  SW1     29.83S
#GOLDENDALE 1NE N/A         68  39  35  SE3     N/A
#GOODNOE HILLS  N/A         73  53  49  E6      29.80F
#LYLE 6NE       N/A         61  51  70  CALM    29.87S
$$

WAZ026-052310-
KITTITAS VALLEY

CITY            SKY/WX      TMP DP  RH  WIND    PRES   REMARKS
ELLENSBURG AP   MOCLDY      71  49  46  CALM    29.92F
YTC-OPS AREA    MOSUNNY     60  47  62  N23G28  29.95F
#ELLENSBURG 3NE N/A         66  53  63  CALM    29.93S
#ELLENSBURG     N/A         71  52  51  NW2     N/A
#ELLENSBURG 1E  N/A         71  N/A N/A CALM    N/A
#KITTITAS 4N    N/A         65  51  60  E8      29.98R
#KITTITAS 3S    N/A         66  53  63  CALM    29.87S
#THORP 6N       N/A         62  54  75  N7      29.93S
$$

WAZ027-052310-
YAKIMA VALLEY

CITY            SKY/WX      TMP DP  RH  WIND    PRES   REMARKS
SUNNYSIDE AP    MOCLDY      71  50  47  CALM    29.89S
YAKIMA AIRPORT  PTCLDY      75  49  40  NE10    29.90S
YAKIMA-VAGABOND MOSUNNY     72  49  44  NE16    29.88F
#DONALD 2NE     N/A         83  14   7  E3      28.74S
#GRANDVIEW      N/A         71  52  51  CALM    29.87F
#MABTON         N/A         71  54  55  E1      29.88F
#MOXEE 2E       N/A         71  28  20  NE2     29.81F
#NACHES 2SW     N/A         70  51  51  E1      29.93S
#TERRACE HTS    N/A         71  51  49  CALM    29.83S
#TOPPENISH      N/A         72  51  48  CALM    29.78S
#WEST VALLEY    N/A         70  50  49  E1      29.85S
#W YAKIMA       N/A         71  51  49  N5      29.86F
#WHITE SWAN 5E  N/A         73  52  48  E2      29.86F
#WILEY CITY 3W  N/A         72  44  37  E2      29.87F
$$

WAZ028-052310-
LOWER COLUMBIA BASIN...WASHINGTON

CITY            SKY/WX      TMP DP  RH  WIND    PRES   REMARKS
HANFORD         CLOUDY      72  53  51  N12     29.88F
PASCO           PTCLDY      73  54  51  N6      29.88F
PROSSER AWOS    N/A         72  55  55  NE7     29.91F
RICHLAND AWOS   MOCLDY      74  57  55  N7      29.87F
#BENTON CITY    N/A         70  56  61  E6      29.77F
#CONNELL 5N     N/A         72  58  61  N3      29.85F
#CONNELL 5NW    N/A         70  59  68  N5      29.83S
#ELTOPIA 6NW    N/A         72  57  59  CALM    28.87S
#KAHLOTUS       N/A         69  52  55  NE2     29.85S
#KENNEWICK 3S   N/A         71  57  61  N1      29.87S
#PATERSON       N/A         68  56  65  SW1     29.86S
#SAGEMOOR 2W    N/A         70  59  68  CALM    29.72S
#TOUCHET 2S     N/A         71  60  68  NW3     29.83F
#WEST PASCO     N/A         75  57  54  CALM    29.93S
$$

WAZ029-052310-
FOOTHILLS OF THE BLUES...WASHINGTON

CITY            SKY/WX      TMP DP  RH  WIND    PRES   REMARKS
WALLA WALLA AP  MOCLDY      72  55  55  NW9     29.87F
#CLYDE 6NW      N/A         69  53  57  N3      29.83F
#LOWDEN 2SE     N/A         72  57  59  W2      29.83F
#PLEASANT VIEW 1N/A         70  53  55  CALM    29.88S
#PRESCOTT       N/A         72  58  61  NW3     29.83F
#SUDBURY        N/A         62  N/A N/A CALM    N/A
#WHITMAN COLLEGEN/A         71  56  59  N1      29.89F
#WAITSBURG 5S   N/A         70  60  71  NW6     29.93S
#WAITSBURG 8N   N/A         71  24  17  N3      29.68F
#WHITMAN MISSIONN/A         71  58  64  CALM    29.85F
$$

WAZ030-052310-
BLUE MOUNTAINS...WASHINGTON

CITY            SKY/WX      TMP DP  RH  WIND    PRES   REMARKS
#DIXIE 5SE      N/A         62  54  75  NW10    29.85F
$$

ORZ009-041-WAZ024-052310-
COLUMBIA RIVER GORGE

CITY            SKY/WX      TMP DP  RH  WIND    PRES   REMARKS
HOOD RIVER AP   CLOUDY      68  50  53  NW5     29.90F
THE DALLES AP   CLOUDY      70  51  51  N12     29.88F
#ARLINGTON AIRPON/A         69  56  63  E3      29.88F
#CELILO DOT     N/A         72  48  43  NW1     N/A
#MARYHILL 2W    N/A         69  53  57  CALM    N/A
#MOSIER 1S      N/A         66  41  40  N3      29.88S
#MURDOCK        N/A         66  53  63  W8      29.84F
#RUFUS DOT      N/A         73  51  46  NW6     N/A

$$

ORZ510-052310-
NORTH CENTRAL OREGON

CITY            SKY/WX      TMP DP  RH  WIND    PRES   REMARKS
#ANTELOPE       N/A         63  49  60  NE8     29.71F
#COW CYN RST AREN/A         62  47  58  NE6     N/A
#DUFUR 9E       N/A         60  47  62  CALM    29.93F
#GRASS VALLEY   N/A         64  48  56  N3      N/A
#GRASS VALLEY 1SN/A         64  51  63  CALM    29.87F
#KENT DOT       N/A         64  39  40  N8      N/A
#MAUPIN SCHOOL  N/A         69  53  57  CALM    29.91F
#MORO SCHOOL    N/A         66  53  63  CALM    29.92F
#SHANIKO 5WSW   N/A         60  39  46  NW9     N/A
#TYGH VALLEY 2NEN/A         68  52  57  NW2     29.86F
#WAPANITIA AIRPON/A         64  49  58  NE1     29.88F
#WASCO DOT      N/A         72  46  39  W6      N/A
#WASCO 5NE      N/A         68  52  57  CALM    29.87F
$$

ORZ511-052310-
CENTRAL OREGON

CITY            SKY/WX      TMP DP  RH  WIND    PRES   REMARKS
BEND AIRPORT    MOCLDY      59  46  62  N7      29.92F
MADRAS AIRPORT  PTCLDY      68  52  57  N5      29.92F
PRINEVILLE AP   CLOUDY      55  52  90  NW7     29.92S FOG
REDMOND AIRPORT MOCLDY      61  49  65  N9      29.91F
#ASHWOOD SCHOOL N/A         64  50  60  CALM    29.87F
#BEND 1SW       N/A         57  48  72  NE2     N/A
#BEND-AWBREY    N/A         59  50  72  CALM    29.86F
#BEND-KIM LN    N/A         59  50  72  NW1     29.90F
#CULVER         N/A         62  50  65  NW1     29.82F
#LAKE BILLY CHINN/A         64  N/A N/A CALM    29.97F
#POWELL BUTTE   N/A         60  50  69  N2      29.80F
#PRINEVILLE 3N  N/A         57  50  77  N5      29.80S
#WARM SPRINGS   N/A         69  52  55  W1      29.87F

$$


ORZ509-052310-
EAST SLOPES OF OREGON CASCADES

CITY            SKY/WX      TMP DP  RH  WIND    PRES   REMARKS
SISTERS AWOS    N/A         61  46  58  CALM    29.91F
#BLUE BOX PASS  N/A         57  N/A N/A CALM    N/A
#CAMP SHERMAN   N/A         62  49  62  CALM    29.92S
#LA PINE DOT    N/A         56  39  53  N6      N/A
#LA PINE 4NW    N/A         55  45  69  CALM    29.88F
#LAVA BUTTE DOT N/A         53  44  71  N1      N/A
#SISTERS AIRPOR N/A         60  53  78  N1      30.17S
#SISTERS ODOT   N/A         60  N/A N/A CALM    N/A
#SISTERS 3N     N/A         61  48  62  CALM    29.94S
#SUNRIVER       N/A         57  48  72  E3      29.87S
#SUTTLE LK DOT  N/A         56  48  74  NE12    N/A
#TUMALO 3W      N/A         57  46  67  N6      29.75F
#WANOGA BUTTE D N/A         46  42  86  E8      N/A

$$

ORZ044-052310-
LOWER COLUMBIA BASIN...OREGON

CITY            SKY/WX      TMP DP  RH  WIND    PRES   REMARKS
HERMISTON       CLOUDY      70  53  55  N5      29.88F
#BOARDMAN SCHOOLN/A         68  57  68  NW1     29.88F
#BOARDMAN 8SW   N/A         70  56  61  NE3     29.86
#ECHO 8SW       N/A         69  55  61  CALM    29.90S
#I-84 EX 198 DOTN/A         66  49  54  E1      N/A
#UMATILLA SCHOOLN/A         76  63  64  E1      29.91F
#UMATILLA       N/A         72  54  53  CALM    29.80F
$$

ORZ507-052310-
NORTHERN FOOTHILLS OF THE BLUES

CITY            SKY/WX      TMP DP  RH  WIND    PRES   REMARKS
PENDLETON AIRPT MOCLDY      68  51  55  VRB5    29.89S
#ADAMS 3WNW     N/A         66  55  68  N5      29.85S
#ATHENA         N/A         66  55  68  N1      29.87S
#CAYUSE         N/A         65  55  70  N7      29.85R
#HELIX SCHOOL   N/A         65  52  63  VRB5    29.86S
#HELIX 3N       N/A         65  55  70  N5      29.88F
#HOLDMAN 5SE    N/A         67  55  65  CALM    29.89S
#HOLDMAN 6E     N/A         64  54  70  E2      29.68R
#M-F FERNDALE   N/A         78  58  50  CALM    29.86F
#M-F GROVE ELEM N/A         70  53  55  N3      29.86F
#M-FREEWATER 5SEN/A         70  56  61  N3      29.88F
#PENDLETON DNTN N/A         71  52  51  CALM    29.92S
#PDT AQUATIC CTRN/A         70  55  59  N3      29.93S
#PDT SUNRIDGE   N/A         69  54  59  CALM    29.90F
#PENDLETON 7NW  N/A         68  57  68  CALM    32.33S
#PILOT ROCK     N/A         66  51  58  NW2     29.91S
#TUTUILLA       N/A         68  56  65  CALM    29.88S
#UMAPINE 2E     N/A         71  57  61  NW2     29.84F
#WESTON SCHOOL  N/A         64  52  65  NE5     29.81S

$$

ORZ508-052310-
SOUTHERN FOOTHILLS OF THE BLUES

CITY            SKY/WX      TMP DP  RH  WIND    PRES   REMARKS
#AJAX           N/A         63  45  52  N3      27.67F
#FOSSIL SCHOOL  N/A         61  51  70  NE12    29.87S
#HEPPNER EOC    N/A         60  52  75  W6      29.81S
#HEPPNER 4NE    N/A         57  51  80  NW6     29.86S
#LEXINGTON 2SE  N/A         64  52  65  CALM    29.86F
#MIKKALO        N/A         69  49  49  CALM    30.01F
#OLEX 4N        N/A         67  52  59  E2      29.89F
#RUGGS 5NE      N/A         58  53  83  NW2     30.11S
#RUGGS 2SW      N/A         57  51  80  N7      29.87F

$$

ORZ502-503-052310-
BLUE MOUNTAINS

CITY            SKY/WX      TMP DP  RH  WIND    PRES   REMARKS
MEACHAM         CLOUDY      60  49  67  VRB3    29.94R
#BATTLE MTN DOT N/A         56  53  90  N5      N/A
#GREENHORN 9SW  N/A         64  47  54  W6      26.07F
#HARDMAN 10S    N/A         61  34  36  N5      30.22S
#HEPPNER 15SE   N/A         56  52  86  W2      25.48F
#LADD CYN SMT   N/A         69  41  36  NW8     N/A
#LADD CREEK ODOTN/A         73  49  43  NE8     N/A
#LONG CREEK HS  N/A         61  53  75  CALM    N/A
#N POWDER DOT   N/A         71  47  42  N16     N/A
#PIKES PEAK     N/A         58  53  83  VRB3    27.99S
#TOLLGATE       N/A         50  48  93  N2      29.83S
#TROY SCHOOL    N/A         76  55  48  E2      29.60F
#UKIAH          N/A         60  51  72  N12     29.76F
#WESTON 4E      N/A         61  54  78  CALM    29.82R
$$

ORZ505-052310-
JOHN DAY BASIN

CITY            SKY/WX      TMP DP  RH  WIND    PRES   REMARKS
JOHN DAY        CLOUDY      61  46  58  W14     29.91R
#DAYVILLE SCHOOLN/A         64  48  56  W2      29.88R
#MITCHELL       N/A         61  54  78  CALM    30.07R
#MITCHELL 8NW   N/A         58  49  72  CALM    30.05S
#MONUMENT HS    N/A         66  50  56  NW5     29.81F
#MT. VERNON 5SE N/A         59  44  57  W3      29.86S
#SPRAY SCHOOL   N/A         68  N/A N/A CALM    N/A
#WINLOCK        N/A         58  52  80  CALM    29.88F
$$

ORZ506-052310-
OCHOCO AND JOHN DAY HIGHLANDS

CITY            SKY/WX      TMP DP  RH  WIND    PRES   REMARKS
#BUCK CREEK DOT N/A         55  48  77  SW1     N/A
#HORSE RIDGE DO N/A         54  45  71  NW8     N/A
#KEYES SMT DOT  N/A         52  47  83  W14     N/A
#PAULINA SCHOOL N/A         54  50  86  S1      29.17S
#PINE MTN OBS   N/A         45  43  93  CALM    N/A
#PRAIRIE CITY   N/A         65  53  65  W5      29.83F
#SENECA         N/A         58  N/A N/A W7      N/A
#SENECA 9NW     N/A         57  49  75  SW1     29.78R
$$

ORZ049-052310-
GRANDE RONDE VALLEY

CITY            SKY/WX      TMP DP  RH  WIND    PRES   REMARKS
LA GRANDE       PTCLDY      75  45  34  NW17    29.82F
#COVE           N/A         73  55  53  W3      29.86F
#COVE SCHOOL    N/A         75  52  45  N1      29.85F
#COVE 6NW       N/A         72  50  46  NW8     29.71F
#ELGIN 3N       N/A         73  48  41  N3      29.82F
#ELGIN 1E       N/A         74  47  38  W2      N/A
#IMBLER SCHOOL  N/A         70  48  46  W13     29.80F
#ISLAND CITY 4N N/A         69  49  49  CALM    29.96S
#LADD CYN DOT   N/A         73  48  41  NW8     N/A
#LA GRANDE ELEM N/A         71  48  44  W10     29.87F
#UNION 1S       N/A         74  48  40  NW5     29.64F
$$

ORZ050-052310-
WALLOWA COUNTY

CITY            SKY/WX      TMP DP  RH  WIND    PRES   REMARKS
JOSEPH AIRPORT  CLOUDY      70  43  38  W3      29.89F
#ENTERPRISE AP  N/A         49  29  46  CALM    29.82F
#ENTERPRISE HS  N/A         71  48  44  E1      29.88S
#IMNAHA SCHOOL  N/A         76  52  43  N7      29.80F
#IMNAHA 10S     N/A         74  52  46  NE5     29.82F
#JOSEPH 3N      N/A         69  48  47  N1      29.91F
#JOSEPH 3W      N/A         68  45  44  CALM    29.76F
#LOSTINE        N/A         72  49  44  CALM    29.54S
#MT HOWARD 8000 N/A         48  40  74  N2      30.06S
#PROMISE 1S     N/A         66  51  58  W10     29.86F
#WALLOWA SCHOOL N/A         73  47  40  NW2     29.82S



$$



USA.gov is the U.S. government's official web portal to all federal, state and local government web resources and services.